FW0683 Weather Reports


time (UTC)temp
C
wind
direction
speed
KPH
gust
KPH
rain 1hr
cm
rain 24hr
cm
rain mn
cm
humidity
%
barometer
mb
20260903204517 21 88 0.0 0.0 0.00 0.48 0.48 86 1015.7
20260903203013 21 95 0.0 0.0 0.00 0.48 0.48 87 1016.0
20260903201512 21 101 0.0 0.0 0.00 0.48 0.48 87 1016.0
20260903200011 21 101 0.0 0.0 0.00 0.48 0.48 88 1016.2
20260903194509 21 101 0.0 0.0 0.00 0.48 0.48 87 1016.4
20260903193008 21 101 0.0 0.0 0.00 0.48 0.48 87 1016.4
20260903191508 21 101 0.0 0.0 0.00 0.48 0.48 88 1016.4
20260903190007 21 101 0.0 0.0 0.00 0.48 0.48 87 1016.4
20260903184505 21 36 0.0 0.0 0.00 0.48 0.48 86 1016.6
20260903183004 21 44 0.0 0.0 0.00 0.48 0.48 88 1016.7
20260903181502 20 70 0.0 0.0 0.00 0.48 0.48 88 1016.9
20260903180001 20 82 0.0 0.0 0.00 0.48 0.48 87 1017.1
20260903174559 20 41 0.0 0.0 0.00 0.48 0.48 91 1017.0
20260903173100 20 41 0.0 0.0 0.00 0.48 0.48 90 1016.9
20260903171557 19 45 0.0 0.0 0.00 0.48 0.48 91 1016.9
20260903170056 19 45 0.0 0.0 0.00 0.48 0.48 90 1017.0
20260903164554 19 37 0.0 0.0 0.00 0.48 0.48 91 1017.1
20260903163052 19 52 0.0 0.0 0.00 0.48 0.48 91 1017.1
20260903161552 19 93 0.0 0.0 0.00 0.48 0.48 92 1017.1
20260903160048 18 106 0.0 0.0 0.00 0.48 0.48 92 1017.4
20260903154545 18 34 0.0 0.0 0.00 0.48 0.48 93 1017.9
20260903153044 18 34 0.0 0.0 0.00 0.48 0.48 93 1018.2
20260903151546 18 34 0.0 0.0 0.00 0.48 0.48 93 1018.1
20260903144539 18 62 0.0 0.0 0.00 0.48 0.48 94 1018.4
20260903143036 17 62 0.0 0.0 0.00 0.48 0.48 94 1018.5
20260903141540 17 65 0.0 0.0 0.00 0.48 0.48 94 1018.7
20260903140040 17 65 0.0 0.0 0.00 0.48 0.48 94 1018.8
20260903134533 17 65 0.0 0.0 0.03 0.48 0.48 94 1018.6
20260903133035 17 63 0.0 0.0 0.03 0.48 0.48 94 1018.9
20260903131531 17 63 0.0 0.0 0.03 0.48 0.48 94 1018.9
20260903130031 17 85 0.0 0.0 0.03 0.48 0.48 94 1018.9
20260903124533 16 85 0.0 0.0 0.03 0.46 0.46 94 1019.2
20260903123033 16 85 0.0 0.0 0.05 0.46 0.46 94 1019.4
20260903121528 16 85 0.0 0.0 0.05 0.46 0.46 94 1019.5
20260903120025 16 85 0.0 0.0 0.05 0.46 0.46 94 1019.6
20260903114524 16 85 0.0 0.0 0.05 0.43 0.43 94 1019.9
20260903113026 16 85 0.0 0.0 0.05 0.41 0.41 94 1019.8
20260903111523 16 85 0.0 0.0 0.05 0.41 0.41 94 1019.9
20260903110022 16 85 0.0 0.0 0.08 0.41 0.41 94 1019.7
20260903104522 16 86 0.0 0.0 0.08 0.38 0.38 93 1019.7
20260903103022 16 352 0.0 0.0 0.08 0.36 0.36 93 1019.7
20260903101521 16 352 0.0 0.0 0.13 0.36 0.36 93 1019.8
20260903100027 16 352 0.0 0.0 0.18 0.33 0.33 93 1019.7
20260903094520 16 352 0.0 0.0 0.30 0.30 0.30 93 1020.0
20260903093020 16 352 0.0 0.0 0.28 0.28 0.28 92 1020.0
20260903091520 16 352 0.0 0.0 0.23 0.23 0.23 92 1020.3
20260903090019 17 352 0.0 0.0 0.15 0.15 0.15 91 1020.5
20260903084537 17 352 0.0 0.0 0.00 0.00 0.00 90 1020.3
20260903083017 17 95 0.0 0.0 0.00 0.00 0.00 90 1019.6
20260903081515 17 91 0.0 0.0 0.00 0.00 0.00 91 1019.8
20260903080013 17 101 0.0 0.0 0.00 0.00 0.00 92 1019.9
20260903074511 16 101 0.0 0.0 0.00 0.00 0.00 93 1020.3
20260903073009 16 101 0.0 0.0 0.00 0.00 0.00 93 1020.2
20260903071509 16 101 0.0 0.0 0.00 0.00 0.00 93 1020.5
20260903070007 16 101 0.0 0.0 0.00 0.00 0.00 93 1020.6
20260903064504 16 70 0.0 0.0 0.00 0.00 0.00 93 1021.1
20260903063001 16 70 0.0 0.0 0.00 0.00 0.00 93 1021.7
20260903061600 16 70 0.0 0.0 0.00 0.00 0.00 93 1022.3
20260903060058 16 70 0.0 0.0 0.00 0.00 0.00 93 1022.5
20260903054556 16 70 0.0 0.0 0.00 0.00 0.00 93 1022.4
20260903053113 16 70 0.0 0.0 0.00 0.00 0.00 93 1022.6
20260903051554 16 70 0.0 0.0 0.00 0.00 0.00 93 1022.6
20260903044559 16 70 0.0 0.0 0.00 0.00 0.00 93 1022.7
20260903043106 16 70 0.0 0.0 0.00 0.00 0.00 93 1022.7
20260903041554 16 70 0.0 0.0 0.00 0.00 0.00 93 1022.9
20260903040049 16 70 0.0 0.0 0.00 0.00 0.00 93 1023.0
20260903034544 16 70 0.0 0.0 0.00 0.00 0.00 93 1023.2
20260903033043 16 70 0.0 0.0 0.00 0.00 0.00 93 1023.9
20260903031543 16 70 0.0 0.0 0.00 0.00 0.00 93 1023.7
20260903030043 16 70 0.0 0.0 0.00 0.00 0.00 93 1023.7
20260903024541 16 70 0.0 0.0 0.00 0.00 0.00 93 1023.6
20260903023040 16 70 0.0 0.0 0.00 0.00 0.00 93 1023.6
20260903021548 16 70 0.0 0.0 0.00 0.00 0.00 92 1023.7
20260903020039 16 70 0.0 0.0 0.00 0.00 0.00 92 1024.0
20260903014538 16 70 0.0 0.0 0.00 0.00 0.00 92 1024.3
20260903013037 16 70 0.0 0.0 0.00 0.00 0.00 92 1023.8
20260903011538 16 70 0.0 0.0 0.00 0.00 0.00 92 1023.9
20260903010037 16 99 0.0 0.0 0.00 0.00 0.00 91 1023.8
20260903004537 17 100 0.0 0.0 0.00 0.00 0.00 91 1024.0
20260903003036 17 100 0.0 0.0 0.00 0.00 0.00 91 1024.2
20260903001535 17 103 0.0 0.0 0.00 0.00 0.00 91 1024.2
20260903000036 17 104 0.0 0.0 0.00 0.00 0.00 91 1024.3
20260902234534 17 51 0.0 0.0 0.00 0.00 0.00 90 1024.6
20260902233035 17 51 0.0 0.0 0.00 0.00 0.00 90 1024.9
20260902231535 17 51 0.0 0.0 0.00 0.00 0.00 88 1024.8
20260902230034 17 98 0.0 0.0 0.00 0.00 0.00 88 1024.9
20260902224539 17 95 0.0 0.0 0.00 0.00 0.00 87 1025.0
20260902223033 18 91 0.0 0.0 0.00 0.00 0.00 85 1025.3
20260902221539 18 73 0.0 0.0 0.00 0.00 0.00 84 1025.4
20260902220042 18 89 0.0 0.0 0.00 0.00 0.00 81 1025.6
20260902214532 19 102 0.0 0.0 0.00 0.00 0.00 79 1025.5
20260902213030 19 115 0.0 0.0 0.00 0.00 0.00 77 1025.5
20260902211529 20 96 0.0 0.0 0.00 0.00 0.00 76 1025.2
20260902210049 20 104 0.0 0.0 0.00 0.00 0.00 78 1025.2